Weather History for KGPT - March, 2013

Change the Weather History Date:

Monday, March 18, 2013

  Actual Average Record
Temperature  
Mean Temperature 70 °F -  
Max Temperature 78 °F - - ()
Min Temperature 64 °F - - ()
Cooling Degree Days 6    
Growing Degree Days 20 (Base 50)    
Moisture  
Dew Point 65 °F    
Average Humidity 85    
Maximum Humidity 93    
Minimum Humidity 71    
Precipitation  
Precipitation 0.00 in - - ()
Sea Level Pressure  
Sea Level Pressure 29.86 in    
Wind  
Wind Speed 8 mph (SSE)    
Max Wind Speed 13 mph    
Max Gust Speed 18 mph    
Visibility 8 miles    
Events      
T = Trace of Precipitation, MM = Missing Value Source: NWS Daily Summary

Daily Weather History Graph

Daily Weather History Graph

Search for Another Location

Airport or City:

Trip Planner

Search our weather history database for the weather conditions in past years. The results will help you decide how hot, cold, wet, or windy it might be!

Date:

Astronomy

Mar. 18, 2013 Rise Set
Actual Time 7:02 AM CDT 7:06 PM CDT
Civil Twilight 6:38 AM CDT 7:30 PM CDT
Nautical Twilight 6:10 AM CDT 7:58 PM CDT
Astronomical Twilight 5:42 AM CDT 8:26 PM CDT
Moon 11:24 AM CDT (3/18) 12:43 AM CDT (3/18)
Length of Visible Light 12h 52m
Length of Day
12h 04m
Waxing Crescent, 41% of the Moon is Illuminated
Mar 18
Waxing Crescent
Mar 19
First Quarter
Mar 27
Full
Apr 2
Last Quarter
Apr 10
New

Hourly Weather History & Observations

Time (CDT) Temp. Dew Point Humidity Pressure Visibility Wind Dir Wind Speed Gust Speed Precip Events Conditions
12:53 AM 64.9 °F 60.1 °F 84% 29.88 in 10.0 mi SSE 9.2 mph - N/A   Scattered Clouds
1:53 AM 66.0 °F 60.1 °F 81% 29.87 in 10.0 mi South 9.2 mph - N/A   Overcast
2:53 AM 66.0 °F 62.1 °F 87% 29.86 in 10.0 mi South 8.1 mph - N/A   Overcast
3:29 AM 66.2 °F 62.6 °F 88% 29.85 in 10.0 mi South 8.1 mph - N/A   Overcast
3:53 AM 66.0 °F 62.1 °F 87% 29.85 in 10.0 mi South 6.9 mph - N/A   Overcast
4:06 AM 66.2 °F 60.8 °F 83% 29.85 in 10.0 mi South 6.9 mph - N/A   Overcast
4:53 AM 64.9 °F 61.0 °F 87% 29.86 in 10.0 mi South 5.8 mph - N/A   Overcast
5:53 AM 64.9 °F 61.0 °F 87% 29.86 in 10.0 mi SE 6.9 mph - N/A   Mostly Cloudy
6:53 AM 64.9 °F 62.1 °F 90% 29.88 in 8.0 mi SSE 6.9 mph - N/A   Mostly Cloudy
7:53 AM 66.0 °F 63.0 °F 90% 29.89 in 8.0 mi SSE 6.9 mph - N/A   Overcast
8:53 AM 69.1 °F 64.9 °F 87% 29.89 in 9.0 mi SSE 12.7 mph - N/A   Mostly Cloudy
9:00 AM 69.8 °F 64.4 °F 83% 29.89 in 9.0 mi SSE 11.5 mph - N/A   Scattered Clouds
9:53 AM 71.1 °F 66.0 °F 84% 29.91 in 9.0 mi SSE 8.1 mph - N/A   Scattered Clouds
10:16 AM 69.8 °F 64.4 °F 83% 29.90 in 9.0 mi South 8.1 mph 18.4 mph N/A   Overcast
10:53 AM 70.0 °F 64.9 °F 84% 29.91 in 8.0 mi South 4.6 mph - N/A   Overcast
11:51 AM 71.6 °F 66.2 °F 83% 29.91 in 9.0 mi SW 4.6 mph - N/A   Overcast
11:53 AM 71.1 °F 66.0 °F 84% 29.91 in 9.0 mi SSW 8.1 mph - N/A   Overcast
12:18 PM 73.4 °F 66.2 °F 78% 29.89 in 10.0 mi SSW 8.1 mph - N/A   Scattered Clouds
12:53 PM 73.9 °F 66.9 °F 79% 29.88 in 10.0 mi SSW 8.1 mph - N/A   Scattered Clouds
1:53 PM 75.9 °F 66.9 °F 74% 29.85 in 10.0 mi Variable 6.9 mph - N/A   Partly Cloudy
2:53 PM 77.0 °F 66.9 °F 71% 29.82 in 10.0 mi South 9.2 mph - N/A   Clear
3:53 PM 77.0 °F 66.9 °F 71% 29.81 in 10.0 mi South 8.1 mph - N/A   Clear
4:53 PM 73.9 °F 66.9 °F 79% 29.78 in 10.0 mi SSE 11.5 mph - N/A   Clear
5:53 PM 73.0 °F 66.9 °F 81% 29.78 in 9.0 mi SSE 8.1 mph - N/A   Partly Cloudy
6:18 PM 71.6 °F 66.2 °F 83% 29.78 in 8.0 mi SSE 9.2 mph - N/A   Mostly Cloudy
6:53 PM 70.0 °F 66.9 °F 90% 29.80 in 5.0 mi South 4.6 mph - N/A   Haze
7:53 PM 70.0 °F 68.0 °F 93% 29.81 in 3.0 mi SE 5.8 mph - N/A   Haze
8:53 PM 70.0 °F 66.9 °F 90% 29.83 in 4.0 mi SE 5.8 mph - N/A   Overcast
9:53 PM 69.1 °F 66.9 °F 93% 29.86 in 5.0 mi SSE 4.6 mph - N/A   Mostly Cloudy
10:53 PM 69.1 °F 66.9 °F 93% 29.88 in 5.0 mi South 4.6 mph - N/A   Overcast
11:53 PM 69.1 °F 66.9 °F 93% 29.87 in 5.0 mi South 4.6 mph - N/A   Overcast